Wind_Speed
37 37 37 38 39 40 40 41 42 42 42 40 37 35 35 38 40 42 41 38 38 42 46 46 47 48 50 51 52 51 50 50 50 51 52 53 55 56 57 58 60 62
39 40 41 41 41 41 42 41 41 39 38 38 36 36 37 39 40 41 41 40 41 46 49 48 48 50 51 51 53 54 53 51 51 52 54 54 55 56 57 59 62 63
42 43 43 42 43 43 43 43 40 35 34 36 37 37 38 38 40 41 40 41 44 49 50 48 49 51 52 53 55 57 56 54 53 55 56 56 56 57 58 61 63 64
44 44 45 45 46 46 45 46 41 35 33 35 35 35 36 39 43 44 42 43 47 50 51 50 50 53 55 56 58 59 59 56 56 57 58 58 58 58 59 62 64 65
45 46 47 47 48 48 47 46 41 35 35 35 34 36 40 44 48 47 44 44 48 49 50 52 53 56 59 61 63 62 61 58 58 58 59 60 60 59 60 62 64 66
46 47 48 49 49 49 49 47 42 38 37 38 41 44 47 50 50 47 44 46 49 51 53 55 58 61 63 65 66 65 62 59 58 58 59 61 63 61 61 62 64 66
48 48 49 50 50 50 49 47 42 39 39 40 43 47 49 50 50 49 48 50 53 54 57 60 63 65 66 68 68 66 62 59 58 58 59 61 64 63 62 63 65 67
48 48 48 50 51 49 47 46 43 41 40 39 40 44 47 49 53 53 52 53 54 57 61 65 66 67 67 68 68 66 63 60 59 59 59 62 65 65 65 66 68 70
48 48 48 49 51 50 47 46 46 44 42 40 40 43 46 51 54 55 55 56 58 62 67 68 66 65 65 66 67 66 64 62 60 60 61 64 66 68 69 69 70 73
46 47 48 49 50 51 49 47 48 48 47 45 42 42 46 51 56 57 58 60 64 68 69 66 63 63 64 66 66 66 66 64 62 62 64 67 69 70 71 71 73 77
46 46 48 49 50 52 51 50 50 52 53 52 47 43 44 50 56 59 60 63 66 68 66 62 60 62 64 66 67 67 66 65 65 66 67 68 70 71 72 74 78 81
47 47 49 50 51 52 51 51 53 55 57 55 50 45 45 50 56 58 60 63 65 65 62 61 62 64 67 68 68 66 66 66 67 68 68 69 71 73 75 79 82 86
49 49 50 51 53 52 49 50 54 56 58 56 52 50 51 53 55 57 60 62 62 62 62 64 66 67 69 69 67 64 64 65 67 68 70 73 75 78 81 83 86 89
50 51 50 50 52 51 50 52 55 55 56 56 54 55 57 58 58 59 59 61 62 63 64 66 68 70 69 68 66 65 65 66 68 70 74 77 80 84 86 88 89 89
51 51 50 48 49 52 53 54 52 47 48 52 54 56 58 59 59 60 60 62 63 64 66 67 69 70 69 69 69 68 68 69 72 75 79 82 86 89 90 91 90 89
53 51 50 46 44 47 50 51 46 42 43 47 51 54 57 58 60 62 64 66 67 69 70 71 72 72 72 72 72 72 73 74 77 81 84 87 91 92 93 92 91 90
55 52 50 46 41 39 44 48 48 48 48 49 53 57 60 61 63 66 69 70 72 74 75 76 77 76 75 74 74 75 77 79 82 85 89 92 95 96 95 94 93 92
56 54 51 48 42 38 45 51 54 56 57 56 61 65 64 64 67 71 72 72 74 76 77 78 78 77 76 76 77 79 82 85 87 89 94 97 99 99 98 95 94 94
55 54 52 50 44 38 45 53 57 61 64 65 70 73 72 70 72 74 74 75 77 80 81 81 80 79 80 82 83 85 87 88 90 94 98 101 101 99 97 96 96 98
55 54 52 51 45 39 45 54 60 67 73 74 75 75 74 74 76 77 79 80 83 86 87 87 87 87 87 87 87 88 90 92 95 99 102 102 100 98 96 96 97 98
56 54 53 51 45 42 48 56 62 70 75 77 77 75 75 77 79 80 82 84 87 89 91 92 92 91 91 90 90 91 94 97 100 101 101 99 97 95 93 93 94 94
57 55 54 50 46 46 53 59 64 71 75 77 80 80 80 80 80 81 84 87 90 91 91 92 93 92 91 91 92 95 97 98 98 98 96 93 90 89 89 89 90 91
59 57 55 50 47 51 57 61 66 71 75 78 81 83 83 84 85 87 90 92 92 91 91 92 93 93 93 93 94 94 94 94 94 92 89 86 86 87 88 89 91 92
61 60 57 53 49 52 57 61 66 71 75 78 80 83 85 87 89 91 91 91 90 89 90 91 92 92 92 91 90 90 89 89 88 86 84 85 86 88 90 91 93 95
63 61 60 58 55 55 59 64 68 71 74 77 80 83 85 86 86 86 85 85 85 85 86 87 88 87 87 86 85 84 84 83 82 82 83 85 86 88 90 92 94 96
65 64 62 59 57 58 61 66 69 71 73 76 77 78 78 79 79 79 78 79 80 80 80 80 81 81 81 81 80 80 79 80 81 82 84 86 88 89 92 95 97 99
Wind_Direction
311 312 313 314 315 316 316 317 320 321 321 319 317 315 315 315 314 313 314 317 319 322 322 323 327 331 333 333 331 329 327 325 325 324 322 320 318 319 321 322 324 325
310 311 313 314 315 314 315 316 319 320 320 319 315 312 310 310 309 310 312 313 313 317 318 318 321 326 328 329 329 328 325 322 320 320 320 319 318 319 320 320 321 323
310 312 314 314 313 313 314 315 315 315 318 317 311 307 306 306 307 309 310 311 311 314 315 316 319 323 325 326 326 326 324 320 317 317 318 319 318 318 318 318 319 320
310 313 313 312 311 311 313 314 312 310 313 311 306 301 301 303 307 309 310 312 313 313 314 315 316 319 322 323 323 323 322 319 316 316 317 318 318 317 316 315 316 318
311 312 312 312 311 312 314 316 314 312 310 304 301 299 299 303 308 310 310 313 313 312 313 315 315 316 319 321 321 320 319 317 316 316 315 316 317 316 314 313 314 316
310 310 311 312 313 314 316 316 315 315 312 304 301 303 303 305 309 310 310 311 312 312 312 313 312 314 317 319 319 318 317 314 313 314 313 313 315 315 312 311 313 314
308 309 311 313 316 317 316 314 313 313 311 305 303 305 305 306 309 310 309 309 310 309 309 310 310 312 315 316 317 316 314 312 311 311 311 311 313 313 311 311 312 313
306 309 312 314 316 316 313 311 312 314 312 309 306 305 306 306 309 310 309 308 309 307 306 308 309 312 314 315 315 315 313 310 309 309 309 310 312 311 311 312 312 311
308 310 312 313 315 314 310 308 313 317 316 313 308 304 303 305 307 308 306 305 305 304 305 308 310 312 313 314 314 314 312 309 307 307 308 309 310 310 311 312 310 309
309 310 311 312 314 314 310 310 315 319 317 314 309 304 302 303 303 303 302 302 302 304 306 308 310 311 311 312 312 312 311 308 306 306 307 308 309 310 311 309 307 307
307 308 308 310 313 313 310 311 316 317 315 313 308 303 300 298 298 298 299 300 301 303 306 307 307 307 308 309 310 310 309 307 305 306 307 308 308 308 307 305 305 307
305 306 307 309 312 312 309 309 312 313 313 312 307 301 297 295 296 297 297 299 300 302 303 303 302 303 305 307 308 308 307 305 304 305 305 305 304 304 304 305 306 308
303 305 306 308 311 312 312 311 310 309 309 308 304 300 298 297 297 297 297 299 300 300 298 298 299 301 303 304 305 305 303 303 302 302 301 301 301 302 304 305 306 308
302 304 306 308 310 312 312 310 306 306 306 304 301 300 300 299 298 298 298 299 298 296 294 293 296 298 300 300 300 299 299 299 298 298 298 299 301 303 305 306 308 310
301 303 305 308 311 311 310 308 305 306 307 304 303 304 303 301 300 299 298 297 296 294 293 293 295 297 297 297 296 296 296 296 295 295 297 300 303 306 308 309 311 311
299 301 302 305 309 308 305 304 301 297 295 294 297 302 301 298 298 297 296 296 296 296 296 296 297 297 296 296 296 296 295 294 294 295 298 302 305 307 309 310 311 311
298 298 298 301 304 301 297 297 293 287 285 284 288 295 297 294 294 295 295 295 296 297 298 298 297 296 295 295 295 294 294 294 294 296 299 303 305 307 309 310 310 310
295 295 295 297 300 297 291 291 289 285 284 283 284 290 292 290 290 292 293 294 295 297 298 297 296 295 293 293 293 293 294 294 295 298 300 303 304 306 307 309 309 309
292 293 293 294 296 292 285 286 286 282 281 282 283 286 286 286 287 289 290 291 294 296 296 296 295 294 293 294 294 295 296 296 297 299 301 302 304 305 307 308 308 308
291 292 292 291 292 286 279 280 281 280 280 283 284 285 283 283 285 287 288 289 292 293 294 294 294 294 295 295 296 296 296 296 298 299 301 303 304 305 306 306 306 306
291 292 291 290 290 284 276 274 274 276 278 281 281 281 281 282 283 285 286 287 289 290 291 292 292 293 293 294 294 295 296 297 298 300 301 303 304 305 305 305 306 307
290 290 289 289 287 279 272 270 271 274 276 277 278 279 280 281 282 283 283 285 287 288 288 289 290 291 291 292 293 295 296 297 298 300 301 303 304 305 306 307 308 307
288 287 287 287 283 276 270 269 271 273 274 275 276 277 278 279 280 282 283 284 285 285 286 286 287 289 290 291 293 295 296 297 298 300 302 304 306 307 307 306 306 305
286 286 285 283 278 274 272 270 271 273 274 275 276 277 278 279 281 282 283 285 285 285 285 286 287 289 291 292 294 295 296 297 299 301 303 305 305 305 304 304 303 304
285 285 285 283 278 274 274 274 274 276 277 277 278 278 279 280 281 283 284 285 285 286 286 287 289 291 292 294 294 295 296 298 299 302 303 303 303 302 302 303 303 304
286 286 285 283 280 278 278 278 278 279 279 279 279 280 281 281 282 283 285 286 287 288 289 290 292 294 295 295 295 296 297 298 299 300 301 301 302 302 302 303 303 303
Height
10935 10934 10933 10932 10930 10928 10926 10923 10921 10918 10915 10913 10911 10910 10908 10906 10904 10902 10900 10898 10895 10893 10891 10889 10887 10885 10882 10880 10878 10876 10873 10871 10869 10867 10864 10862 10860 10857 10853 10850 10847 10844
10931 10929 10928 10927 10926 10925 10923 10921 10918 10915 10912 10910 10907 10905 10903 10902 10900 10898 10896 10894 10892 10889 10887 10884 10882 10880 10877 10875 10873 10871 10869 10867 10864 10862 10860 10858 10855 10852 10848 10845 10842 10840
10926 10925 10924 10923 10921 10920 10918 10916 10914 10912 10909 10906 10903 10901 10899 10897 10895 10894 10892 10890 10887 10885 10882 10879 10877 10874 10872 10870 10868 10867 10865 10862 10860 10857 10855 10852 10849 10846 10843 10840 10837 10834
10922 10921 10919 10917 10915 10914 10912 10910 10908 10906 10903 10901 10898 10896 10894 10892 10890 10888 10886 10884 10882 10879 10877 10874 10872 10869 10867 10865 10863 10861 10859 10857 10854 10851 10848 10845 10842 10840 10837 10834 10831 10829
10918 10915 10913 10911 10909 10907 10905 10903 10901 10900 10897 10895 10893 10890 10887 10886 10884 10882 10880 10878 10876 10874 10871 10868 10866 10864 10862 10859 10857 10855 10853 10850 10847 10843 10840 10838 10835 10833 10830 10827 10825 10822
10912 10910 10907 10905 10903 10901 10899 10897 10895 10894 10892 10889 10887 10884 10881 10879 10878 10876 10873 10871 10869 10867 10864 10862 10860 10857 10855 10853 10851 10849 10846 10843 10839 10836 10833 10830 10828 10826 10823 10820 10818 10816
10907 10904 10902 10899 10898 10897 10893 10891 10890 10888 10886 10884 10881 10878 10875 10872 10870 10868 10866 10864 10862 10859 10857 10855 10853 10850 10848 10846 10844 10841 10838 10835 10832 10829 10826 10823 10821 10819 10816 10813 10811 10809
10901 10899 10898 10895 10893 10892 10888 10885 10884 10883 10881 10879 10876 10873 10870 10866 10862 10860 10858 10856 10854 10852 10850 10848 10846 10843 10841 10839 10836 10834 10831 10828 10825 10821 10819 10816 10814 10812 10809 10806 10803 10801
10898 10895 10894 10892 10889 10886 10883 10880 10878 10878 10876 10874 10871 10869 10865 10861 10857 10855 10852 10850 10848 10845 10843 10841 10838 10835 10833 10830 10828 10826 10824 10821 10818 10815 10812 10809 10807 10804 10801 10798 10796 10794
10896 10892 10890 10888 10885 10882 10879 10876 10873 10872 10870 10868 10866 10864 10861 10857 10853 10850 10847 10844 10841 10838 10835 10833 10830 10827 10825 10823 10821 10819 10817 10815 10812 10809 10806 10803 10799 10796 10794 10791 10789 10786
10893 10890 10886 10884 10883 10880 10876 10872 10869 10866 10864 10862 10860 10858 10856 10852 10848 10844 10842 10838 10834 10831 10828 10826 10823 10821 10819 10817 10815 10813 10810 10808 10805 10802 10799 10796 10792 10789 10787 10785 10782 10778
10890 10887 10882 10879 10878 10876 10872 10868 10864 10861 10857 10854 10853 10851 10849 10847 10842 10838 10835 10832 10829 10826 10823 10820 10818 10815 10812 10810 10808 10806 10804 10801 10798 10795 10792 10789 10785 10782 10780 10777 10773 10769
10886 10883 10879 10876 10873 10871 10867 10863 10859 10855 10851 10848 10846 10845 10842 10840 10837 10833 10830 10826 10824 10821 10818 10815 10812 10809 10806 10804 10802 10800 10797 10794 10791 10788 10784 10781 10778 10774 10771 10768 10764 10760
10882 10880 10877 10873 10868 10864 10862 10859 10854 10850 10846 10842 10841 10839 10836 10833 10830 10828 10824 10821 10819 10815 10812 10810 10807 10804 10801 10798 10796 10794 10791 10788 10784 10781 10777 10773 10769 10766 10762 10759 10756 10752
10877 10875 10874 10871 10865 10859 10855 10852 10848 10844 10840 10836 10834 10832 10829 10826 10824 10821 10818 10815 10813 10809 10806 10804 10801 10798 10795 10792 10790 10787 10784 10781 10776 10772 10769 10765 10760 10756 10753 10750 10747 10743
10872 10871 10870 10868 10866 10860 10854 10849 10843 10839 10836 10831 10828 10826 10824 10821 10819 10816 10813 10809 10806 10802 10800 10797 10795 10792 10789 10785 10783 10780 10777 10773 10768 10764 10760 10757 10752 10748 10745 10741 10738 10735
10867 10866 10865 10864 10865 10862 10858 10851 10841 10833 10830 10826 10823 10820 10818 10816 10813 10810 10807 10803 10799 10795 10793 10790 10788 10785 10782 10779 10776 10773 10769 10765 10761 10757 10752 10748 10744 10741 10738 10734 10730 10727
10861 10860 10859 10859 10860 10859 10856 10850 10838 10828 10824 10822 10818 10814 10812 10809 10806 10803 10800 10796 10793 10789 10786 10783 10780 10778 10775 10772 10769 10766 10763 10758 10754 10750 10744 10740 10736 10733 10730 10727 10722 10717
10855 10853 10853 10853 10855 10856 10853 10845 10833 10823 10820 10818 10812 10808 10805 10802 10799 10796 10793 10789 10785 10782 10779 10776 10773 10771 10767 10764 10762 10759 10755 10750 10746 10742 10737 10732 10729 10726 10722 10718 10713 10708
10849 10848 10847 10847 10849 10851 10849 10840 10828 10818 10814 10811 10807 10802 10799 10796 10793 10789 10785 10781 10778 10775 10771 10768 10765 10762 10759 10755 10753 10750 10746 10742 10737 10733 10728 10724 10720 10717 10713 10709 10704 10700
10843 10842 10841 10842 10843 10844 10841 10833 10822 10812 10808 10805 10801 10797 10793 10790 10786 10782 10777 10774 10771 10767 10764 10760 10757 10753 10750 10747 10745 10742 10738 10733 10728 10724 10719 10715 10712 10708 10704 10700 10696 10691
10835 10835 10835 10836 10837 10834 10829 10822 10814 10807 10803 10798 10793 10789 10785 10781 10777 10773 10770 10766 10763 10760 10756 10752 10748 10745 10742 10740 10737 10734 10729 10724 10719 10715 10711 10707 10703 10699 10695 10691 10687 10682
10826 10827 10828 10831 10830 10822 10815 10810 10804 10799 10795 10790 10785 10780 10776 10772 10769 10765 10761 10757 10754 10752 10748 10743 10739 10737 10735 10733 10730 10726 10721 10716 10711 10707 10704 10699 10694 10690 10686 10682 10678 10673
10817 10816 10818 10822 10822 10813 10804 10800 10796 10791 10787 10782 10777 10773 10768 10764 10761 10756 10752 10749 10746 10743 10739 10734 10731 10729 10727 10725 10722 10717 10712 10707 10703 10700 10696 10691 10686 10681 10677 10673 10669 10664
10807 10807 10807 10809 10809 10804 10796 10791 10787 10783 10779 10774 10770 10765 10760 10756 10752 10747 10743 10740 10737 10734 10731 10726 10722 10721 10720 10716 10713 10709 10704 10700 10696 10692 10687 10683 10678 10673 10668 10664 10660 10655
10796 10797 10797 10796 10795 10792 10787 10782 10779 10775 10771 10766 10761 10755 10750 10746 10742 10738 10735 10732 10729 10727 10724 10720 10715 10713 10711 10706 10703 10700 10696 10693 10689 10684 10680 10675 10670 10665 10660 10654 10650 10646